Baraboo, WI

7:46 AM CST on November 23, 2017 (GMT -0600)
Baraboo Wisconsin Dells

Weather History for KDLL - October, 2013

Change the Weather History Date:

Thursday, October 3, 2013

  Actual Average Record
Temperature  
Mean Temperature 65 °F -  
Max Temperature 74 °F 65 °F 86 °F (1997)
Min Temperature 57 °F 38 °F 19 °F (1989)
Growing Degree Days 15 (Base 50)    
Moisture  
Dew Point 57 °F    
Average Humidity 77    
Maximum Humidity 94    
Minimum Humidity 47    
Precipitation  
Precipitation 1.07 in - - ()
Sea Level Pressure  
Sea Level Pressure 29.89 in    
Wind  
Wind Speed 7 mph (SSE)    
Max Wind Speed 14 mph    
Max Gust Speed 18 mph    
Visibility 8 miles    
Events Rain , Thunderstorm    
Averages and records for this station are not official NWS values.
T = Trace of Precipitation, MM = Missing Value Source: NWS Daily Summary

Daily Weather History Graph

Daily Weather History Graph

Search for Another Location

Airport or City:

Trip Planner

Search our weather history database for the weather conditions in past years. The results will help you decide how hot, cold, wet, or windy it might be!

Date:

Astronomy

Oct. 03, 2013 Rise Set
Actual Time 6:59 AM CDT 6:36 PM CDT
Civil Twilight 6:30 AM CDT 7:04 PM CDT
Nautical Twilight 5:57 AM CDT 7:37 PM CDT
Astronomical Twilight 5:23 AM CDT 8:11 PM CDT
Moon 5:31 AM CDT (10/3) 5:45 PM CDT (10/3)
Length of Visible Light 12h 33m
Length of Day
11h 36m
Waning Crescent, 2% of the Moon is Illuminated
Oct 3
Waning Crescent
Oct 4
New
Oct 11
First Quarter
Oct 18
Full
Oct 26
Last Quarter

Hourly Weather History & Observations

Time (CDT) Temp. Dew Point Humidity Pressure Visibility Wind Dir Wind Speed Gust Speed Precip Events Conditions
12:15 AM 61.7 °F 43.9 °F 52% 29.95 in 10.0 mi SSE 9.2 mph - N/A   Clear
12:35 AM 61.0 °F 42.6 °F 51% 29.95 in 10.0 mi South 9.2 mph - N/A   Clear
12:55 AM 61.2 °F 41.0 °F 47% 29.94 in 10.0 mi South 11.5 mph - N/A   Clear
1:15 AM 61.3 °F 40.6 °F 47% 29.93 in 10.0 mi SSE 9.2 mph - N/A   Clear
1:35 AM 61.0 °F 41.0 °F 48% 29.94 in 10.0 mi South 8.1 mph - N/A   Clear
1:55 AM 60.1 °F 41.9 °F 51% 29.94 in 10.0 mi South 8.1 mph - N/A   Clear
2:15 AM 60.4 °F 42.8 °F 52% 29.94 in 10.0 mi South 9.2 mph - N/A   Clear
2:35 AM 60.1 °F 44.2 °F 56% 29.93 in 10.0 mi South 6.9 mph - N/A   Mostly Cloudy
2:55 AM 60.1 °F 46.6 °F 61% 29.92 in 10.0 mi South 11.5 mph - N/A   Scattered Clouds
3:15 AM 60.1 °F 47.8 °F 64% 29.91 in 10.0 mi South 8.1 mph - N/A   Clear
3:35 AM 59.9 °F 49.5 °F 68% 29.91 in 10.0 mi SSW 4.6 mph - N/A   Scattered Clouds
3:55 AM 59.9 °F 50.2 °F 70% 29.91 in 10.0 mi Calm Calm - N/A   Scattered Clouds
4:15 AM 60.3 °F 51.3 °F 72% 29.91 in 10.0 mi South 6.9 mph - N/A   Mostly Cloudy
4:35 AM 60.4 °F 48.9 °F 66% 29.95 in 10.0 mi NW 4.6 mph 10.4 mph N/A Thunderstorm Overcast
4:55 AM 60.4 °F 49.5 °F 67% 29.95 in 10.0 mi SW 5.8 mph - N/A Rain , Thunderstorm Light Thunderstorms and Rain
5:15 AM 59.2 °F 51.1 °F 74% 29.93 in 10.0 mi SSW 3.5 mph - N/A Rain Light Rain
5:35 AM 59.2 °F 51.6 °F 76% 29.92 in 10.0 mi SSW 5.8 mph - N/A   Overcast
5:55 AM 59.0 °F 52.9 °F 80% 29.94 in 10.0 mi South 5.8 mph - 0.01 in Rain Light Rain
6:15 AM 58.3 °F 53.2 °F 83% 29.93 in 4.0 mi SSE 3.5 mph - 0.02 in Rain Light Rain
6:35 AM 58.1 °F 54.3 °F 87% 29.92 in 10.0 mi SSW 3.5 mph - 0.02 in Rain Light Rain
6:55 AM 58.1 °F 54.7 °F 88% 29.92 in 10.0 mi Calm Calm - 0.02 in   Mostly Cloudy
7:15 AM 57.4 °F 55.0 °F 92% 29.90 in 7.0 mi SE 6.9 mph - N/A   Clear
7:35 AM 58.3 °F 55.8 °F 91% 29.90 in 7.0 mi Calm Calm - N/A   Clear
7:55 AM 59.9 °F 57.2 °F 91% 29.90 in 7.0 mi South 4.6 mph - N/A   Clear
8:15 AM 62.2 °F 58.1 °F 86% 29.89 in 5.0 mi SSE 6.9 mph - N/A   Clear
8:35 AM 63.5 °F 58.1 °F 83% 29.89 in 10.0 mi South 6.9 mph - N/A   Clear
8:55 AM 65.1 °F 58.5 °F 79% 29.89 in 10.0 mi South 11.5 mph - N/A   Clear
9:15 AM 67.1 °F 58.8 °F 75% 29.88 in 10.0 mi South 10.4 mph - N/A   Clear
9:35 AM 68.0 °F 57.7 °F 70% 29.89 in 10.0 mi Calm Calm - N/A   Clear
9:55 AM 69.6 °F 58.3 °F 67% 29.89 in 10.0 mi SSE 4.6 mph - N/A   Clear
10:15 AM 69.8 °F 58.6 °F 68% 29.90 in 10.0 mi South 5.8 mph - N/A   Clear
10:35 AM 70.3 °F 57.7 °F 64% 29.89 in 10.0 mi South 6.9 mph - N/A   Clear
10:55 AM 71.2 °F 57.6 °F 62% 29.90 in 10.0 mi SE 8.1 mph - N/A   Clear
11:15 AM 71.4 °F 58.3 °F 63% 29.90 in 10.0 mi SSE 9.2 mph - N/A   Clear
11:35 AM 72.0 °F 59.7 °F 65% 29.89 in 10.0 mi SSE 6.9 mph - N/A   Clear
11:55 AM 73.2 °F 60.8 °F 65% 29.88 in 10.0 mi South 11.5 mph - N/A   Clear
12:15 PM 73.0 °F 61.5 °F 67% 29.87 in 10.0 mi SSE 13.8 mph - N/A   Clear
12:35 PM 71.6 °F 63.0 °F 74% 29.88 in 10.0 mi SSW 13.8 mph - N/A   Scattered Clouds
12:55 PM 71.1 °F 63.1 °F 76% 29.87 in 10.0 mi South 10.4 mph - N/A   Mostly Cloudy
1:15 PM 70.9 °F 63.1 °F 76% 29.87 in 10.0 mi South 12.7 mph - N/A Rain Light Rain
1:35 PM 68.9 °F 64.4 °F 86% 29.86 in 7.0 mi South 6.9 mph - 0.01 in Rain Light Rain
1:55 PM 69.8 °F 63.7 °F 81% 29.84 in 10.0 mi SSE 5.8 mph - 0.01 in   Mostly Cloudy
2:15 PM 72.0 °F 63.3 °F 74% 29.84 in 10.0 mi SE 4.6 mph - N/A   Scattered Clouds
2:35 PM 72.3 °F 61.3 °F 68% 29.83 in 10.0 mi SSE 10.4 mph 17.3 mph N/A   Clear
2:55 PM 71.6 °F 61.2 °F 70% 29.84 in 10.0 mi SSE 9.2 mph - N/A   Scattered Clouds
3:15 PM 71.2 °F 61.3 °F 71% 29.84 in 10.0 mi SSE 5.8 mph - N/A   Scattered Clouds
3:35 PM 70.9 °F 61.3 °F 72% 29.84 in 10.0 mi South 4.6 mph - N/A Rain Light Rain
3:55 PM 70.2 °F 61.9 °F 75% 29.84 in 10.0 mi SSW 3.5 mph - N/A   Overcast
4:15 PM 69.3 °F 62.6 °F 79% 29.84 in 4.0 mi Calm Calm - 0.02 in Rain Light Rain
4:35 PM 68.7 °F 64.0 °F 85% 29.84 in 10.0 mi Calm Calm - 0.03 in Rain , Thunderstorm Thunderstorms and Rain
4:55 PM 68.7 °F 64.6 °F 87% 29.84 in 10.0 mi SSE 5.8 mph - 0.03 in Rain , Thunderstorm Thunderstorms and Rain
5:15 PM 68.2 °F 65.3 °F 90% 29.84 in 4.0 mi Calm Calm - 0.02 in Rain , Thunderstorm Heavy Thunderstorms and Rain
5:35 PM 67.3 °F 63.7 °F 88% 29.84 in 10.0 mi Calm Calm - 0.02 in Thunderstorm Overcast
5:55 PM 66.0 °F 62.6 °F 89% 29.84 in 0.8 mi North 4.6 mph - 0.33 in Rain , Thunderstorm Heavy Thunderstorms and Rain
6:15 PM 65.3 °F 61.9 °F 89% 29.85 in 5.0 mi Calm Calm - 0.05 in Rain , Thunderstorm Heavy Thunderstorms and Rain
6:35 PM 64.4 °F 61.7 °F 91% 29.84 in 1.0 mi NNE 6.9 mph - 0.36 in Rain , Thunderstorm Heavy Thunderstorms and Rain
6:55 PM 63.5 °F 61.3 °F 93% 29.84 in 2.0 mi NNE 6.9 mph 18.4 mph 0.66 in Rain , Thunderstorm Light Thunderstorms and Rain
7:15 PM 63.9 °F 61.9 °F 93% 29.85 in 4.0 mi Calm Calm - N/A   Light Drizzle
7:35 PM 63.5 °F 61.7 °F 94% 29.86 in 2.0 mi Calm Calm - N/A Thunderstorm Overcast
7:55 PM 63.5 °F 61.7 °F 94% 29.86 in 1.5 mi NE 5.8 mph - N/A   Overcast
8:15 PM 63.5 °F 61.7 °F 94% 29.87 in 1.2 mi NE 3.5 mph - N/A   Overcast
8:35 PM 63.5 °F 61.7 °F 94% 29.87 in 1.2 mi NE 5.8 mph - N/A   Overcast
8:55 PM 63.0 °F 61.2 °F 94% 29.87 in 1.8 mi ENE 9.2 mph - N/A   Overcast
9:15 PM 62.6 °F 60.8 °F 94% 29.88 in 2.0 mi NE 5.8 mph - 0.01 in Rain Light Rain
9:35 PM 62.1 °F 60.1 °F 93% 29.87 in 2.0 mi ENE 6.9 mph - 0.01 in Rain Light Rain
9:55 PM 61.7 °F 59.7 °F 93% 29.88 in 1.8 mi North 3.5 mph - 0.01 in   Overcast
10:15 PM 61.2 °F 59.2 °F 93% 29.87 in 1.5 mi ENE 10.4 mph - N/A   Overcast
10:35 PM 60.8 °F 58.8 °F 93% 29.88 in 1.2 mi ENE 10.4 mph - N/A   Overcast
11:35 PM 60.8 °F 59.0 °F 94% 29.90 in 1.0 mi ENE 4.6 mph - N/A   Overcast
11:55 PM 60.4 °F 58.8 °F 94% 29.90 in 1.0 mi NE 5.8 mph - N/A   Overcast